Terminal Aerodrome Forecast
Issued by NWS Cheyenne, WY

Home | Current Version | Previous Version | Text Only | Print | Product List | Glossary On
Versions: 1 2 3 4 5 6 7 8 9 10 11 12 13 14 15 16 17 18 19 20 21 22 23 24 25 26 27 28 29 30 31 32 33 34 35 36 37 38
000
FTUS45 KCYS 202300
TAFCYS
TAF
KCYS 202338Z 2100/2124 30012G21KT P6SM VCSH SCT050 BKN080
     FM210200 29007KT P6SM SCT150
     FM211600 29009G16KT P6SM SCT250=

USA.gov is the U.S. government's official web portal to all federal, state and local government web resources and services.